SMILE

Last updated on Wed Aug 12 2026 00:03:36 GMT+0000 (Coordinated Universal Time)

1 69123U 26109A 26220.21296035 .00000889 00000+0 00000+0 0 9992 2 69123 70.0321 206.4850 8258748 286.4626 0.2167 0.47508507 177
UTC large
Height (km)
Speed (km/s)
/
Latitude / Longitude
Inclination (degrees)
Orbital Period (minutes)
Azimuth
Elevation
Range (km)
Doppler Factor

Next 0 passes for location: London (51.5072 / 0.1276)

No passes found over London.
SMILE